When you browse on this site, cookies collect data to enhance your experience and personalize the content and advertising you see.
Visit our Privacy Policy to learn more. By continuing to use the site, you agree to this use of cookies and data.
  • In Hungary
  • List of Countries
  • For 7 days
  • Water Temperature
  • Satellite Maps
  • Weather Map
  • News
  • Weather Widgets
  • user-avatar
    Login

    Hourly Weather Tarim

    Today, 20 January, Sunday

    Time Temperature Precipitation Wind Pressure Humidity
    00:00 +21°C° 0 mm 1 mps 709 mmHg 50%
    01:00 +20°C° 0 mm 2 mps 709 mmHg 51%
    02:00 +19°C° 0 mm 2 mps 709 mmHg 52%
    03:00 +18°C° 0 mm 2 mps 709 mmHg 54%
    04:00 +18°C° 0 mm 2 mps 710 mmHg 55%
    05:00 +17°C° 0 mm 2 mps 710 mmHg 56%
    06:00 +17°C° 0 mm 2 mps 710 mmHg 58%
    07:00 +18°C° 0 mm 2 mps 711 mmHg 54%
    08:00 +19°C° 0 mm 3 mps 711 mmHg 51%
    09:00 +21°C° 0 mm 2 mps 712 mmHg 46%
    10:00 +23°C° 0 mm 2 mps 711 mmHg 43%
    11:00 +25°C° 0 mm 2 mps 711 mmHg 40%
    12:00 +26°C° 0 mm 2 mps 711 mmHg 36%
    13:00 +27°C° 0 mm 3 mps 711 mmHg 33%
    14:00 +28°C° 0 mm 3 mps 710 mmHg 30%
    15:00 +29°C° 0 mm 3 mps 710 mmHg 27%
    16:00 +28°C° 0 mm 3 mps 710 mmHg 28%
    17:00 +27°C° 0 mm 4 mps 710 mmHg 29%
    18:00 +26°C° 0 mm 4 mps 710 mmHg 29%
    19:00 +25°C° 0 mm 4 mps 710 mmHg 31%
    20:00 +22°C° 0 mm 3 mps 710 mmHg 32%
    21:00 +21°C° 0 mm 3 mps 711 mmHg 33%
    22:00 +20°C° 0 mm 3 mps 711 mmHg 35%
    23:00 +20°C° 0 mm 2 mps 711 mmHg 36%

    Tomorrow, 21 January, Monday

    Time Temperature Precipitation Wind Pressure Humidity
    00:00 +19°C° 0 mm 2 mps 710 mmHg 38%
    01:00 +19°C° 0 mm 1 mps 710 mmHg 39%
    02:00 +18°C° 0 mm 1 mps 710 mmHg 41%
    03:00 +18°C° 0 mm 1 mps 710 mmHg 42%
    04:00 +16°C° 0 mm 1 mps 710 mmHg 44%
    05:00 +16°C° 0 mm 1 mps 710 mmHg 45%
    06:00 +15°C° 0 mm 1 mps 710 mmHg 46%
    07:00 +18°C° 0 mm 1 mps 711 mmHg 42%
    08:00 +20°C° 0 mm 1 mps 711 mmHg 38%
    09:00 +21°C° 0 mm 1 mps 712 mmHg 34%
    10:00 +23°C° 0 mm 1 mps 711 mmHg 32%
    11:00 +25°C° 0 mm 1 mps 711 mmHg 29%
    12:00 +26°C° 0 mm 1 mps 711 mmHg 27%
    13:00 +27°C° 0 mm 1 mps 710 mmHg 25%
    14:00 +28°C° 0 mm 1 mps 710 mmHg 23%
    15:00 +29°C° 0 mm 1 mps 709 mmHg 22%
    16:00 +28°C° 0 mm 2 mps 709 mmHg 23%
    17:00 +27°C° 0 mm 2 mps 709 mmHg 24%
    18:00 +26°C° 0 mm 2 mps 709 mmHg 26%
    19:00 +25°C° 0 mm 2 mps 710 mmHg 27%
    20:00 +24°C° 0 mm 3 mps 710 mmHg 28%
    21:00 +22°C° 0 mm 3 mps 710 mmHg 29%
    22:00 +21°C° 0 mm 2 mps 710 mmHg 29%
    23:00 +20°C° 0 mm 2 mps 709 mmHg 29%

    Day after tomorrow, 22 January, Tuesday

    Time Temperature Precipitation Wind Pressure Humidity
    00:00 +20°C° 0 mm 1 mps 709 mmHg 30%
    01:00 +19°C° 0 mm 1 mps 709 mmHg 30%
    02:00 +19°C° 0 mm 1 mps 708 mmHg 31%
    03:00 +18°C° 0 mm 1 mps 708 mmHg 32%
    04:00 +18°C° 0 mm 1 mps 708 mmHg 32%
    05:00 +16°C° 0 mm 1 mps 708 mmHg 33%
    06:00 +14°C° 0 mm 0 mps 708 mmHg 34%
    07:00 +19°C° 0 mm 1 mps 709 mmHg 29%
    08:00 +21°C° 0 mm 1 mps 710 mmHg 25%
    09:00 +23°C° 0 mm 1 mps 710 mmHg 20%
    10:00 +25°C° 0 mm 1 mps 710 mmHg 19%
    11:00 +27°C° 0 mm 2 mps 710 mmHg 18%
    12:00 +28°C° 0 mm 2 mps 709 mmHg 16%
    13:00 +29°C° 0 mm 2 mps 709 mmHg 16%
    14:00 +30°C° 0 mm 2 mps 708 mmHg 15%
    15:00 +31°C° 0 mm 2 mps 707 mmHg 15%
    16:00 +30°C° 0 mm 2 mps 707 mmHg 16%
    17:00 +28°C° 0 mm 3 mps 708 mmHg 18%
    18:00 +27°C° 0 mm 3 mps 708 mmHg 20%
    19:00 +26°C° 0 mm 2 mps 708 mmHg 22%
    20:00 +25°C° 0 mm 2 mps 708 mmHg 23%
    21:00 +24°C° 0 mm 2 mps 709 mmHg 25%
    22:00 +23°C° 0 mm 1 mps 708 mmHg 32%
    23:00 +22°C° 0 mm 1 mps 708 mmHg 39%

    23 January, Wednesday

    Time Temperature Precipitation Wind Pressure Humidity
    00:00 +21°C° 0 mm 1 mps 708 mmHg 46%
    01:00 +20°C° 0 mm 1 mps 707 mmHg 48%
    02:00 +20°C° 0 mm 1 mps 707 mmHg 51%
    03:00 +19°C° 0 mm 1 mps 706 mmHg 54%
    04:00 +19°C° 0 mm 1 mps 707 mmHg 56%
    05:00 +18°C° 0 mm 1 mps 707 mmHg 58%
    06:00 +18°C° 0 mm 1 mps 707 mmHg 60%
    07:00 +20°C° 0 mm 1 mps 708 mmHg 55%
    08:00 +21°C° 0 mm 1 mps 709 mmHg 51%
    09:00 +23°C° 0 mm 2 mps 709 mmHg 47%
    10:00 +25°C° 0 mm 2 mps 709 mmHg 40%
    11:00 +27°C° 0 mm 2 mps 709 mmHg 33%
    12:00 +29°C° 0 mm 2 mps 709 mmHg 26%
    13:00 +30°C° 0 mm 2 mps 708 mmHg 24%
    14:00 +31°C° 0 mm 2 mps 708 mmHg 22%
    15:00 +33°C° 0 mm 3 mps 707 mmHg 19%
    16:00 +30°C° 0 mm 3 mps 707 mmHg 21%
    17:00 +29°C° 0 mm 3 mps 708 mmHg 23%
    18:00 +28°C° 0 mm 4 mps 708 mmHg 24%
    19:00 +27°C° 0 mm 4 mps 708 mmHg 26%
    20:00 +26°C° 0 mm 4 mps 709 mmHg 28%
    21:00 +25°C° 0 mm 4 mps 710 mmHg 30%
    22:00 +24°C° 0 mm 3 mps 709 mmHg 38%
    23:00 +23°C° 0 mm 2 mps 709 mmHg 47%

    24 January, Thursday

    Time Temperature Precipitation Wind Pressure Humidity
    00:00 +22°C° 0 mm 1 mps 709 mmHg 55%
    01:00 +21°C° 0 mm 1 mps 708 mmHg 61%
    02:00 +20°C° 0 mm 1 mps 708 mmHg 66%
    03:00 +20°C° 0 mm 1 mps 708 mmHg 71%
    04:00 +19°C° 0 mm 1 mps 708 mmHg 73%
    05:00 +19°C° 0 mm 1 mps 708 mmHg 76%
    06:00 +19°C° 0 mm 1 mps 708 mmHg 78%
    07:00 +20°C° 0 mm 1 mps 709 mmHg 71%
    08:00 +22°C° 0 mm 1 mps 710 mmHg 64%
    09:00 +24°C° 0 mm 2 mps 711 mmHg 57%
    10:00 +26°C° 0 mm 2 mps 710 mmHg 49%
    11:00 +28°C° 0 mm 3 mps 710 mmHg 40%
    12:00 +30°C° 0 mm 3 mps 709 mmHg 31%
    13:00 +31°C° 0 mm 3 mps 709 mmHg 28%
    14:00 +32°C° 0 mm 4 mps 708 mmHg 25%
    15:00 +33°C° 0 mm 4 mps 708 mmHg 22%
    16:00 +32°C° 0 mm 4 mps 708 mmHg 23%
    17:00 +30°C° 0 mm 4 mps 708 mmHg 24%
    18:00 +29°C° 0 mm 4 mps 709 mmHg 25%
    19:00 +28°C° 0 mm 4 mps 709 mmHg 28%
    20:00 +26°C° 0 mm 4 mps 710 mmHg 30%
    21:00 +25°C° 0 mm 4 mps 710 mmHg 33%
    22:00 +24°C° 0 mm 3 mps 710 mmHg 39%
    23:00 +22°C° 0 mm 3 mps 710 mmHg 45%

    25 January, Friday

    Time Temperature Precipitation Wind Pressure Humidity
    00:00 +21°C° 0 mm 2 mps 710 mmHg 52%
    01:00 +22°C° 0 mm 1 mps 709 mmHg 57%
    02:00 +21°C° 0 mm 1 mps 709 mmHg 62%
    03:00 +20°C° 0 mm 1 mps 709 mmHg 67%
    04:00 +20°C° 0 mm 1 mps 709 mmHg 70%
    05:00 +19°C° 0 mm 1 mps 709 mmHg 74%
    06:00 +19°C° 0 mm 1 mps 710 mmHg 77%
    07:00 +20°C° 0 mm 1 mps 710 mmHg 71%
    08:00 +22°C° 0 mm 1 mps 710 mmHg 65%
    09:00 +23°C° 0 mm 2 mps 711 mmHg 59%
    10:00 +25°C° 0 mm 2 mps 711 mmHg 49%
    11:00 +27°C° 0 mm 3 mps 710 mmHg 39%
    12:00 +29°C° 0 mm 3 mps 710 mmHg 30%
    13:00 +30°C° 0 mm 3 mps 709 mmHg 27%
    14:00 +32°C° 0 mm 4 mps 709 mmHg 23%
    15:00 +33°C° 0 mm 4 mps 709 mmHg 20%
    16:00 +30°C° 0 mm 4 mps 709 mmHg 22%
    17:00 +29°C° 0 mm 4 mps 709 mmHg 23%
    18:00 +28°C° 0 mm 4 mps 709 mmHg 24%
    19:00 +27°C° 0 mm 3 mps 710 mmHg 26%
    20:00 +26°C° 0 mm 3 mps 710 mmHg 28%
    21:00 +24°C° 0 mm 2 mps 710 mmHg 30%
    22:00 +23°C° 0 mm 2 mps 710 mmHg 35%
    23:00 +22°C° 0 mm 1 mps 710 mmHg 39%
    Show more